Location: Cruquius
(52.3348°N, 4.6319°E)
Time: 20:11:00
(UTC+00:00)

S3M - Pass Details

Date: 12 May 2021
Orbit: 948 x 1005 km, 83.0° (Epoch: 20 June)

Event Time Altitude Azimuth Distance (km) Brightness Sun altitude
Rises 20:02:02 0° 191° (S) 3,717 6.8 -5.3°
Reaches altitude 10° 20:04:34 10° 192° (SSW) 2,768 6.1 -5.6°
Maximum altitude 20:10:57 81° 280° (W) 1,012 4.2 -6.3°
Drops below altitude 10° 20:17:18 10° 9° (N) 2,754 6.9 -7.0°
Sets 20:19:49 0° 11° (N) 3,698 7.5 -7.3°
